Renton, WA

10:28 AM PDT on March 26, 2017 (GMT -0700)
Renton Municipal

Weather History for KRNT - December, 2012

Change the Weather History Date:

Tuesday, December 18, 2012

  Actual Average Record
Temperature  
Mean Temperature 38 °F -  
Max Temperature 42 °F 44 °F 57 °F (2003)
Min Temperature 35 °F 35 °F 24 °F (2008)
Degree Days  
Heating Degree Days 26    
Moisture  
Dew Point 32 °F    
Average Humidity 78    
Maximum Humidity 93    
Minimum Humidity 65    
Precipitation  
Precipitation 0.12 in - - ()
Sea Level Pressure  
Sea Level Pressure 29.95 in    
Wind  
Wind Speed 7 mph (SSE)    
Max Wind Speed 12 mph    
Max Gust Speed 23 mph    
Visibility 8 miles    
Events Rain , Snow    
Averages and records for this station are not official NWS values.
T = Trace of Precipitation, MM = Missing Value Source: NWS Daily Summary

Daily Weather History Graph

Daily Weather History Graph

Search for Another Location

Airport or City:

Trip Planner

Search our weather history database for the weather conditions in past years. The results will help you decide how hot, cold, wet, or windy it might be!

Date:

Astronomy

Dec. 18, 2012 Rise Set
Actual Time 7:52 AM PST 4:19 PM PST
Civil Twilight 7:16 AM PST 4:55 PM PST
Nautical Twilight 6:37 AM PST 5:34 PM PST
Astronomical Twilight 5:59 AM PST 6:11 PM PST
Moon 11:11 AM PST (12/18) 11:16 PM PST (12/18)
Length of Visible Light 9h 38m
Length of Day
8h 26m
Waxing Crescent, 36% of the Moon is Illuminated
Dec 18
Waxing Crescent
Dec 19
First Quarter
Dec 28
Full
Jan 4
Last Quarter
Jan 11
New

Hourly Weather History & Observations

Time (PST) Temp. Windchill Dew Point Humidity Pressure Visibility Wind Dir Wind Speed Gust Speed Precip Events Conditions
12:26 AM 39.2 °F 33.6 °F 30.2 °F 70% 29.91 in 10.0 mi SSE 8.1 mph - N/A   Mostly Cloudy
12:53 AM 37.9 °F 30.9 °F 30.9 °F 76% 29.92 in 10.0 mi SSE 10.4 mph - N/A   Mostly Cloudy
1:04 AM 37.4 °F 30.8 °F 30.2 °F 75% 29.90 in 10.0 mi South 9.2 mph - N/A   Scattered Clouds
1:44 AM 37.4 °F 34.9 °F 32.0 °F 81% 29.90 in 8.0 mi SE 3.5 mph - 0.01 in Rain Light Rain
1:53 AM 37.9 °F 34.4 °F 33.1 °F 83% 29.92 in 10.0 mi SE 4.6 mph - 0.01 in Rain Light Rain
2:53 AM 37.0 °F 31.6 °F 32.0 °F 82% 29.92 in 6.0 mi SSE 6.9 mph - 0.01 in Rain Light Rain
3:01 AM 37.4 °F 31.4 °F 32.0 °F 81% 29.90 in 4.0 mi SSE 8.1 mph - 0.01 in Snow Light Snow
3:12 AM 35.6 °F 30.7 °F 32.0 °F 87% 29.90 in 2.5 mi SE 5.8 mph - 0.02 in Snow Light Snow
3:29 AM 35.6 °F - 33.8 °F 93% 29.90 in 3.0 mi Calm Calm - 0.03 in Snow Light Snow
3:33 AM 35.6 °F 32.8 °F 33.8 °F 93% 29.90 in 2.5 mi SSE 3.5 mph - 0.04 in Snow Light Snow
3:41 AM 35.6 °F 32.8 °F 32.0 °F 87% 29.90 in 1.2 mi SE 3.5 mph - 0.06 in Snow Light Snow
3:53 AM 35.1 °F 31.0 °F 32.0 °F 89% 29.91 in 1.8 mi SE 4.6 mph - 0.07 in Snow Light Snow
3:57 AM 35.6 °F 32.8 °F 32.0 °F 87% 29.90 in 2.5 mi ESE 3.5 mph - 0.01 in Snow Light Snow
4:00 AM 35.6 °F 32.8 °F 32.0 °F 87% 29.90 in 3.0 mi SE 3.5 mph - 0.01 in Snow Light Snow
4:11 AM 35.6 °F 30.7 °F 32.0 °F 87% 29.90 in 4.0 mi ESE 5.8 mph - 0.02 in Snow Light Snow
4:53 AM 37.0 °F 33.3 °F 33.1 °F 86% 29.90 in 10.0 mi Variable 4.6 mph - 0.03 in Rain Light Freezing Rain
5:09 AM 37.4 °F - 33.8 °F 87% 29.89 in 10.0 mi Calm Calm - 0.00 in   Overcast
5:53 AM 37.9 °F 30.9 °F 33.1 °F 83% 29.92 in 10.0 mi SSE 10.4 mph - 0.00 in   Overcast
6:53 AM 37.0 °F 29.8 °F 33.1 °F 86% 29.93 in 10.0 mi SSE 10.4 mph - N/A   Overcast
7:53 AM 37.9 °F 32.1 °F 32.0 °F 79% 29.94 in 10.0 mi SSE 8.1 mph - N/A   Overcast
8:53 AM 37.9 °F 31.5 °F 32.0 °F 79% 29.95 in 10.0 mi SSE 9.2 mph - N/A   Partly Cloudy
9:31 AM 37.4 °F 29.8 °F 33.8 °F 87% 29.95 in 10.0 mi SSE 11.5 mph - N/A   Mostly Cloudy
9:53 AM 37.9 °F 30.9 °F 33.1 °F 83% 29.96 in 10.0 mi SSE 10.4 mph - N/A   Mostly Cloudy
10:04 AM 37.4 °F 30.8 °F 33.8 °F 87% 29.95 in 10.0 mi SSE 9.2 mph - N/A   Mostly Cloudy
10:53 AM 39.0 °F 34.8 °F 34.0 °F 82% 29.97 in 10.0 mi SSE 5.8 mph - N/A   Overcast
10:58 AM 39.2 °F 33.0 °F 33.8 °F 81% 29.96 in 10.0 mi SSE 9.2 mph - N/A   Mostly Cloudy
11:40 AM 41.0 °F 35.8 °F 33.8 °F 76% 29.96 in 10.0 mi SSE 8.1 mph - N/A   Mostly Cloudy
11:53 AM 41.0 °F 34.7 °F 33.1 °F 73% 29.97 in 10.0 mi SSE 10.4 mph - N/A   Mostly Cloudy
12:03 PM 41.0 °F 34.7 °F 33.8 °F 76% 29.96 in 10.0 mi SSE 10.4 mph - N/A   Mostly Cloudy
12:53 PM 41.0 °F 34.3 °F 32.0 °F 70% 29.98 in 10.0 mi South 11.5 mph 23.0 mph N/A   Overcast
1:08 PM 41.0 °F 34.3 °F 33.8 °F 76% 29.96 in 10.0 mi South 11.5 mph 18.4 mph N/A   Overcast
1:38 PM 41.0 °F 34.7 °F 33.8 °F 76% 29.96 in 10.0 mi South 10.4 mph 18.4 mph N/A   Overcast
1:53 PM 41.0 °F 35.8 °F 32.0 °F 70% 29.97 in 10.0 mi South 8.1 mph - N/A   Mostly Cloudy
2:53 PM 42.1 °F 37.1 °F 32.0 °F 67% 29.98 in 10.0 mi South 8.1 mph - N/A   Overcast
3:53 PM 41.0 °F 35.8 °F 30.9 °F 67% 29.99 in 10.0 mi SSW 8.1 mph - N/A   Overcast
4:00 PM 41.0 °F 36.4 °F 30.2 °F 65% 29.97 in 10.0 mi South 6.9 mph - N/A   Overcast
4:53 PM 41.0 °F 35.2 °F 30.0 °F 65% 30.00 in 10.0 mi South 9.2 mph 16.1 mph 0.00 in   Overcast
5:53 PM 39.9 °F 36.7 °F 30.9 °F 70% 30.00 in 10.0 mi SE 4.6 mph - N/A   Mostly Cloudy
6:53 PM 39.9 °F 35.1 °F 30.9 °F 70% 30.01 in 10.0 mi SSE 6.9 mph - N/A   Overcast
7:53 PM 39.9 °F 35.1 °F 30.9 °F 70% 30.01 in 10.0 mi SSE 6.9 mph - N/A   Overcast
8:02 PM 39.2 °F 33.0 °F 30.2 °F 70% 29.99 in 10.0 mi SSE 9.2 mph - N/A   Overcast
8:26 PM 39.2 °F 33.6 °F 30.2 °F 70% 29.99 in 10.0 mi SSE 8.1 mph - N/A   Overcast
8:33 PM 39.2 °F 34.2 °F 30.2 °F 70% 29.99 in 10.0 mi SSE 6.9 mph - N/A   Overcast
8:53 PM 39.0 °F 34.8 °F 30.0 °F 70% 30.01 in 10.0 mi SSE 5.8 mph - N/A   Overcast
9:53 PM 39.0 °F 35.7 °F 30.0 °F 70% 30.01 in 10.0 mi SSE 4.6 mph - N/A   Overcast
10:53 PM 39.0 °F - 30.0 °F 70% 30.00 in 10.0 mi Calm Calm - N/A   Overcast
11:53 PM 39.0 °F 35.7 °F 28.9 °F 67% 29.99 in 10.0 mi ESE 4.6 mph - N/A   Overcast